Time,TemperatureF,DewpointF,PressureIn,WindDirection,WindDirectionDegrees,WindSpeedMPH,WindSpeedGustMPH,Humidity,HourlyPrecipIn,Conditions,Clouds,dailyrainin,SoftwareType,DateUTC
2013-04-03 00:14:00,36.0,34.0,30.14,NNE,24,0.0,1.0,91,0.00,,,0.00,weatherlink.com 1.10,2013-04-03 06:14:00,
2013-04-03 00:29:00,36.1,34.0,30.14,NNE,18,0.0,1.0,91,0.00,,,0.00,weatherlink.com 1.10,2013-04-03 06:29:00,
2013-04-03 01:14:00,36.3,34.0,30.14,NNE,18,0.0,0.0,91,0.00,,,0.00,weatherlink.com 1.10,2013-04-03 07:14:00,
2013-04-03 01:29:00,36.3,34.0,30.14,NNE,18,0.0,0.0,91,0.00,,,0.00,weatherlink.com 1.10,2013-04-03 07:29:00,
2013-04-03 01:44:00,36.4,34.0,30.14,NNE,18,0.0,0.0,91,0.00,,,0.00,weatherlink.com 1.10,2013-04-03 07:44:00,
2013-04-03 02:00:00,36.5,34.0,30.14,NNE,18,0.0,0.0,91,0.00,,,0.00,weatherlink.com 1.10,2013-04-03 08:00:00,
2013-04-03 02:14:00,36.6,34.0,30.14,NNE,18,0.0,0.0,91,0.00,,,0.00,weatherlink.com 1.10,2013-04-03 08:14:00,
2013-04-03 02:29:00,36.7,35.0,30.14,NNE,18,0.0,0.0,92,0.00,,,0.00,weatherlink.com 1.10,2013-04-03 08:29:00,
2013-04-03 02:44:00,36.8,35.0,30.14,NNE,18,0.0,0.0,91,0.00,,,0.00,weatherlink.com 1.10,2013-04-03 08:44:00,
2013-04-03 02:59:00,36.9,35.0,30.14,NNE,18,0.0,0.0,92,0.00,,,0.00,weatherlink.com 1.10,2013-04-03 08:59:00,
2013-04-03 03:14:00,36.8,35.0,30.14,NNE,18,0.0,0.0,91,0.00,,,0.00,weatherlink.com 1.10,2013-04-03 09:14:00,
2013-04-03 03:29:00,36.7,34.0,30.14,NNE,18,0.0,0.0,91,0.00,,,0.00,weatherlink.com 1.10,2013-04-03 09:29:00,
2013-04-03 03:44:00,36.6,35.0,30.14,NNE,18,0.0,0.0,92,0.00,,,0.00,weatherlink.com 1.10,2013-04-03 09:44:00,
2013-04-03 03:59:00,36.5,34.0,30.14,NNE,18,0.0,1.0,91,0.00,,,0.00,weatherlink.com 1.10,2013-04-03 09:59:00,
2013-04-03 04:14:00,36.2,34.0,30.14,NNE,18,0.0,0.0,91,0.00,,,0.00,weatherlink.com 1.10,2013-04-03 10:14:00,
2013-04-03 04:29:00,36.0,34.0,30.14,NNE,18,0.0,0.0,91,0.00,,,0.00,weatherlink.com 1.10,2013-04-03 10:29:00,
2013-04-03 04:44:00,35.9,34.0,30.14,NNE,18,0.0,0.0,92,0.00,,,0.00,weatherlink.com 1.10,2013-04-03 10:44:00,
2013-04-03 04:59:00,35.9,34.0,30.14,NNE,18,0.0,0.0,92,0.00,,,0.00,weatherlink.com 1.10,2013-04-03 10:59:00,
2013-04-03 05:14:00,35.9,34.0,30.15,NNE,18,0.0,0.0,92,0.00,,,0.00,weatherlink.com 1.10,2013-04-03 11:14:00,
2013-04-03 05:29:00,35.9,34.0,30.15,NNE,18,0.0,0.0,92,0.00,,,0.00,weatherlink.com 1.10,2013-04-03 11:29:00,
2013-04-03 05:44:00,36.2,34.0,30.15,NNE,18,0.0,0.0,93,0.00,,,0.00,weatherlink.com 1.10,2013-04-03 11:44:00,
2013-04-03 05:59:00,36.3,35.0,30.15,NNE,18,0.0,0.0,93,0.00,,,0.00,weatherlink.com 1.10,2013-04-03 11:59:00,
2013-04-03 06:14:00,36.2,34.0,30.15,NNE,18,0.0,1.0,93,0.00,,,0.00,weatherlink.com 1.10,2013-04-03 12:14:00,
2013-04-03 06:29:00,36.2,34.0,30.15,NNE,18,0.0,1.0,93,0.00,,,0.00,weatherlink.com 1.10,2013-04-03 12:29:00,
2013-04-03 06:44:00,36.2,34.0,30.16,NNE,18,0.0,0.0,92,0.00,,,0.00,weatherlink.com 1.10,2013-04-03 12:44:00,
2013-04-03 06:59:00,36.1,34.0,30.16,NNE,18,0.0,0.0,92,0.00,,,0.00,weatherlink.com 1.10,2013-04-03 12:59:00,
2013-04-03 07:14:00,36.2,34.0,30.16,NNE,22,0.0,1.0,93,0.00,,,0.00,weatherlink.com 1.10,2013-04-03 13:14:00,
2013-04-03 07:29:00,36.5,35.0,30.17,NNE,22,0.0,1.0,93,0.00,,,0.00,weatherlink.com 1.10,2013-04-03 13:29:00,
2013-04-03 07:45:00,37.3,36.0,30.17,NE,45,1.0,3.0,93,0.00,,,0.00,weatherlink.com 1.10,2013-04-03 13:45:00,
2013-04-03 08:00:00,37.5,35.0,30.18,NE,53,0.0,2.0,92,0.00,,,0.00,weatherlink.com 1.10,2013-04-03 14:00:00,
2013-04-03 08:15:00,37.5,35.0,30.17,NE,53,0.0,0.0,91,0.00,,,0.00,weatherlink.com 1.10,2013-04-03 14:15:00,
2013-04-03 08:30:00,37.9,35.0,30.17,NE,53,0.0,1.0,90,0.00,,,0.00,weatherlink.com 1.10,2013-04-03 14:30:00,
2013-04-03 08:45:00,38.4,36.0,30.18,NE,53,0.0,1.0,90,0.00,,,0.00,weatherlink.com 1.10,2013-04-03 14:45:00,
2013-04-03 09:00:00,38.9,35.0,30.18,NE,53,0.0,1.0,87,0.00,,,0.00,weatherlink.com 1.10,2013-04-03 15:00:00,
2013-04-03 09:15:00,39.5,36.0,30.18,East,87,0.0,3.0,86,0.00,,,0.00,weatherlink.com 1.10,2013-04-03 15:15:00,
2013-04-03 09:30:00,40.2,36.0,30.18,East,90,0.0,3.0,85,0.00,,,0.00,weatherlink.com 1.10,2013-04-03 15:30:00,
2013-04-03 09:45:00,40.8,36.0,30.17,East,98,0.0,2.0,83,0.00,,,0.00,weatherlink.com 1.10,2013-04-03 15:45:00,
2013-04-03 10:00:00,41.0,36.0,30.17,SSW,194,1.0,4.0,82,0.00,,,0.00,weatherlink.com 1.10,2013-04-03 16:00:00,
2013-04-03 10:15:00,41.4,36.0,30.17,SSW,195,1.0,3.0,81,0.00,,,0.00,weatherlink.com 1.10,2013-04-03 16:15:00,
2013-04-03 10:30:00,42.9,37.0,30.17,SSE,163,3.0,6.0,79,0.00,,,0.00,weatherlink.com 1.10,2013-04-03 16:30:00,
2013-04-03 10:45:00,43.5,36.0,30.16,SSE,159,1.0,4.0,76,0.00,,,0.00,weatherlink.com 1.10,2013-04-03 16:45:00,
2013-04-03 11:00:00,44.7,37.0,30.16,South,176,2.0,4.0,73,0.00,,,0.00,weatherlink.com 1.10,2013-04-03 17:00:00,
2013-04-03 11:15:00,45.6,37.0,30.15,SE,140,2.0,5.0,72,0.00,,,0.00,weatherlink.com 1.10,2013-04-03 17:15:00,
2013-04-03 11:30:00,46.7,37.0,30.15,SW,234,0.0,3.0,69,0.00,,,0.00,weatherlink.com 1.10,2013-04-03 17:30:00,
2013-04-03 11:45:00,48.0,36.0,30.15,SE,146,0.0,4.0,64,0.00,,,0.00,weatherlink.com 1.10,2013-04-03 17:45:00,
2013-04-03 12:00:00,48.3,35.0,30.14,SSW,196,1.0,4.0,61,0.00,,,0.00,weatherlink.com 1.10,2013-04-03 18:00:00,
2013-04-03 12:15:00,49.4,37.0,30.14,East,92,1.0,5.0,62,0.00,,,0.00,weatherlink.com 1.10,2013-04-03 18:15:00,
2013-04-03 12:30:00,50.8,35.0,30.13,South,186,1.0,5.0,56,0.00,,,0.00,weatherlink.com 1.10,2013-04-03 18:30:00,
2013-04-03 12:45:00,51.2,33.0,30.12,NNE,32,0.0,7.0,51,0.00,,,0.00,weatherlink.com 1.10,2013-04-03 18:45:00,
2013-04-03 13:00:00,52.7,34.0,30.12,NE,53,2.0,8.0,49,0.00,,,0.00,weatherlink.com 1.10,2013-04-03 19:00:00,
2013-04-03 13:15:00,52.9,33.0,30.11,ENE,65,1.0,8.0,47,0.00,,,0.00,weatherlink.com 1.10,2013-04-03 19:15:00,
2013-04-03 13:30:00,54.1,32.0,30.11,ESE,109,3.0,8.0,43,0.00,,,0.00,weatherlink.com 1.10,2013-04-03 19:30:00,
2013-04-03 13:46:00,54.9,31.0,30.11,ENE,57,2.0,8.0,40,0.00,,,0.00,weatherlink.com 1.10,2013-04-03 19:46:00,
2013-04-03 14:01:00,54.7,31.0,30.10,NNE,26,6.0,8.0,41,0.00,,,0.00,weatherlink.com 1.10,2013-04-03 20:01:00,
2013-04-03 14:16:00,55.3,31.0,30.10,ESE,119,0.0,7.0,40,0.00,,,0.00,weatherlink.com 1.10,2013-04-03 20:16:00,
2013-04-03 14:31:00,55.9,30.0,30.10,NE,56,1.0,8.0,37,0.00,,,0.00,weatherlink.com 1.10,2013-04-03 20:31:00,
2013-04-03 14:46:00,56.0,29.0,30.10,NNE,28,0.0,9.0,35,0.00,,,0.00,weatherlink.com 1.10,2013-04-03 20:46:00,
2013-04-03 15:01:00,56.9,29.0,30.09,SE,130,3.0,7.0,35,0.00,,,0.00,weatherlink.com 1.10,2013-04-03 21:01:00,
2013-04-03 15:46:00,58.3,28.0,30.08,ENE,61,0.0,6.0,31,0.00,,,0.00,weatherlink.com 1.10,2013-04-03 21:46:00,
2013-04-03 16:01:00,58.2,28.0,30.07,SE,133,1.0,7.0,32,0.00,,,0.00,weatherlink.com 1.10,2013-04-03 22:01:00,
2013-04-03 16:16:00,59.0,27.0,30.06,SE,137,1.0,5.0,29,0.00,,,0.00,weatherlink.com 1.10,2013-04-03 22:16:00,
2013-04-03 16:31:00,59.5,27.0,30.06,ESE,120,0.0,5.0,29,0.00,,,0.00,weatherlink.com 1.10,2013-04-03 22:31:00,
2013-04-03 16:46:00,59.0,25.0,30.05,East,79,2.0,6.0,27,0.00,,,0.00,weatherlink.com 1.10,2013-04-03 22:46:00,
2013-04-03 17:01:00,59.5,26.0,30.05,ESE,103,3.0,6.0,28,0.00,,,0.00,weatherlink.com 1.10,2013-04-03 23:01:00,
2013-04-03 17:31:00,57.8,26.0,30.04,East,85,0.0,2.0,30,0.00,,,0.00,weatherlink.com 1.10,2013-04-03 23:31:00,
2013-04-03 17:46:00,59.2,24.0,30.04,NE,37,1.0,3.0,26,0.00,,,0.00,weatherlink.com 1.10,2013-04-03 23:46:00,
2013-04-03 18:16:00,58.6,25.0,30.04,NNE,30,0.0,1.0,27,0.00,,,0.00,weatherlink.com 1.10,2013-04-04 00:16:00,
2013-04-03 18:31:00,58.4,24.0,30.05,NNE,30,0.0,1.0,27,0.00,,,0.00,weatherlink.com 1.10,2013-04-04 00:31:00,
2013-04-03 18:46:00,58.5,24.0,30.05,NW,305,1.0,4.0,27,0.00,,,0.00,weatherlink.com 1.10,2013-04-04 00:46:00,
2013-04-03 19:01:00,58.1,25.0,30.04,NW,308,1.0,5.0,28,0.00,,,0.00,weatherlink.com 1.10,2013-04-04 01:01:00,
2013-04-03 19:16:00,57.3,25.0,30.04,NW,307,0.0,1.0,29,0.00,,,0.00,weatherlink.com 1.10,2013-04-04 01:16:00,
2013-04-03 19:31:00,56.4,27.0,30.04,NW,308,0.0,0.0,32,0.00,,,0.00,weatherlink.com 1.10,2013-04-04 01:31:00,
2013-04-03 19:46:00,54.7,27.0,30.04,NW,308,0.0,0.0,35,0.00,,,0.00,weatherlink.com 1.10,2013-04-04 01:46:00,
2013-04-03 20:01:00,53.6,28.0,30.05,NW,308,0.0,2.0,37,0.00,,,0.00,weatherlink.com 1.10,2013-04-04 02:01:00,
2013-04-03 20:16:00,54.2,26.0,30.05,NW,304,5.0,13.0,34,0.00,,,0.00,weatherlink.com 1.10,2013-04-04 02:16:00,
2013-04-03 20:31:00,54.2,25.0,30.06,NNE,30,1.0,2.0,33,0.00,,,0.00,weatherlink.com 1.10,2013-04-04 02:31:00,
2013-04-03 21:01:00,51.8,27.0,30.07,NW,315,0.0,1.0,38,0.00,,,0.00,weatherlink.com 1.10,2013-04-04 03:01:00,
2013-04-03 21:16:00,51.0,28.0,30.07,NW,315,0.0,0.0,41,0.00,,,0.00,weatherlink.com 1.10,2013-04-04 03:16:00,
2013-04-03 21:31:00,50.1,27.0,30.07,WNW,296,0.0,3.0,41,0.00,,,0.00,weatherlink.com 1.10,2013-04-04 03:31:00,
2013-04-03 21:46:00,49.6,27.0,30.08,WNW,296,0.0,0.0,42,0.00,,,0.00,weatherlink.com 1.10,2013-04-04 03:46:00,
2013-04-03 22:01:00,48.4,28.0,30.08,WNW,296,0.0,0.0,46,0.00,,,0.00,weatherlink.com 1.10,2013-04-04 04:01:00,
2013-04-03 22:16:00,47.8,28.0,30.09,WNW,296,0.0,2.0,46,0.00,,,0.00,weatherlink.com 1.10,2013-04-04 04:16:00,
2013-04-03 23:01:00,51.2,27.0,30.10,NNW,341,1.0,3.0,39,0.00,,,0.00,weatherlink.com 1.10,2013-04-04 05:01:00,
2013-04-03 23:16:00,50.3,28.0,30.10,WNW,298,2.0,4.0,42,0.00,,,0.00,weatherlink.com 1.10,2013-04-04 05:16:00,
2013-04-03 23:31:00,49.6,29.0,30.10,NW,311,3.0,3.0,45,0.00,,,0.00,weatherlink.com 1.10,2013-04-04 05:31:00,
2013-04-03 23:46:00,49.4,29.0,30.09,NW,311,0.0,1.0,45,0.00,,,0.00,weatherlink.com 1.10,2013-04-04 05:46:00,